IRIDIUM 33 DEB, 34690

Orbit data source: Space-Track

IRIDIUM 33 DEB, 34690 is space debris in LEO originally from a launch on Sun, 14 Sep 1997 UTC launched from the Tyuratam Missile And Space Complex (TTMTR). The debris from Iridium 33, an American commercial communications satellite, has been tracked extensively since its accidental collision with the defunct Russian satellite Cosmos 2251 in 2009. This event, occurring at high speed in low Earth orbit (LEO), generated thousands of pieces of space debris, significantly increasing the risk of further collisions. The Iridium 33 debris cloud has impacted space traffic management and orbital debris mitigation strategies, making it a subject of ongoing study in space situational awareness.

Loading next visibility...
Identifier
34690, 1997-051KM
Orbit
LEO
Country
Flag of USUS
Related business
Manufacturer
Unknown
Mission
Spacecraft
Bus & Motor
Unknown
Mass
Unknown
Launch date (UTC)
1997-09-14 (29 years ago)
Launch vehicle
Unknown
Launch site
Tyuratam Missile And Space Complex (TTMTR)
Object type
Payload
Rocket body
Debris
Shape & HBR
Unknown shape, 0.1 m
Radar Cross Section
Small (<0.1 m²)

Expand to show TLE details & history
Last TLE update: 9 hours ago

TLE from 9 hours ago
0 IRIDIUM 33 DEB
1 34690U 97051KM  26122.05429713  .00001839  00000-0  41637-3 0  9993
2 34690  86.3777 335.9980 0007599 260.2649 251.7942 14.55657976901351
Epoch: 2026-05-02T01:18Z
TLE epoch observation values (Epoch: 2026-05-02T01:18:11.272Z)
Latitude
28.00463°
Longitude
-85.44564°
Altitude
712.509 km
Speed
7.501 km/s
True Right ascension
10h 16m 18s
True Declination
27° 51' 41"
Sunlit
Object was in daylight at epoch
Visualization orbit readout
Latitude
Unknown
Longitude
Unknown
Altitude
Unknown
Speed
Unknown
Apparent Right ascension
Unknown
Apparent Declination
Unknown
Sunlit
N/A
Visualization observer readout
Local Sidereal Time
17:38:36
Azimuth
Unknown
Elevation
Unknown
Doppler factor
Unknown
Orbital elements
Apogee altitude
709.545 km
Perigee altitude
698.782 km
Semi-major axis
7,082.3 km
Eccentricity
0.00076
Inclination
86.3777°
RAAN
335.998°
Arg. of periapsis
260.2649°
True anomaly
251.71151°
Mean anomaly
251.7942°
Eccentric anomaly
251.75285°
Mean motion
3.64151 °/min
Orbital period
98.86 mins
BSTAR
0.00041637
Loading maneuver chart data...
Computing Atmospheric mass density...

Documentation

Showing up to 5 results
|